Location: Unspecified
(0.0000°N, 0.0000°E)
Time: 08:36:47
(UTC+01:00)

Vanguard 3 - All Passes

Search period start: 16 January 2018 00:00
Search period end: 26 January 2018 00:00
Orbit: 508 x 3264 km, 33.4° (Epoch: 15 January)

Date Brightness Start Highest point End Pass type
(mag) Time Alt. Az. Time Alt. Az. Time Alt. Az.
16 Jan - 02:02:09 10° WNW 02:14:00 30° NNW 02:29:51 10° NNE visible
16 Jan - 04:24:23 10° NW 04:35:53 18° N 04:47:36 10° NNE visible
16 Jan - 06:46:20 10° NNW 06:58:59 20° NNE 07:09:12 10° NE visible
16 Jan - 09:03:20 10° NW 09:17:59 40° NNE 09:26:59 10° E daylight
16 Jan - 11:20:25 10° WNW 11:32:31 71° SW 11:39:07 10° SE daylight
16 Jan - 20:25:41 10° S 20:29:19 15° SE 20:34:00 10° ESE visible
16 Jan - 22:33:32 10° SW 22:41:19 79° SE 22:55:42 10° ENE visible
17 Jan - 00:46:16 10° W 00:56:44 40° NNW 01:12:58 10° NE night (unlit)
17 Jan - 03:05:11 10° NW 03:16:37 21° NNW 03:29:54 10° NNE visible
17 Jan - 05:28:08 10° NNW 05:40:00 18° N 05:50:52 10° NE visible
17 Jan - 07:46:24 10° NNW 08:01:14 30° NNE 08:11:38 10° ENE daylight
17 Jan - 10:03:05 10° NW 10:17:55 71° NNE 10:26:03 10° ESE daylight
17 Jan - 12:22:13 10° W 12:30:27 28° SW 12:35:45 10° SSE daylight
17 Jan - 21:21:03 10° SSW 21:27:12 42° SE 21:37:41 10° ENE visible
17 Jan - 23:31:46 10° WSW 23:40:32 57° NNW 23:55:58 10° NE visible
18 Jan - 01:47:30 10° WNW 01:58:15 26° NNW 02:12:35 10° NNE visible
18 Jan - 04:09:22 10° NW 04:20:25 18° N 04:31:52 10° NE visible
18 Jan - 06:29:17 10° NNW 06:43:23 24° NNE 06:54:46 10° ENE visible
18 Jan - 08:45:58 10° NW 09:02:13 48° NNE 09:12:03 10° E daylight
18 Jan - 11:03:46 10° WNW 11:16:40 59° SW 11:23:47 10° SE daylight
18 Jan - 20:09:52 10° S 20:13:39 17° SE 20:18:41 10° E visible
18 Jan - 22:18:17 10° SW 22:25:27 87° NW 22:38:48 10° NE visible
19 Jan - 00:31:29 10° W 00:40:59 34° NNW 00:55:33 10° NE night (unlit)
19 Jan - 02:50:42 10° NW 03:01:04 19° N 03:13:10 10° NNE visible
19 Jan - 05:11:54 10° NNW 05:24:29 19° N 05:36:10 10° NE visible
19 Jan - 07:29:02 10° NW 07:45:26 35° NNE 07:56:53 10° E daylight
19 Jan - 09:45:58 10° NW 10:02:00 83° NE 10:10:51 10° ESE daylight
19 Jan - 12:06:18 10° W 12:14:39 25° SW 12:20:11 10° S daylight
19 Jan - 21:05:40 10° SW 21:11:23 50° SE 21:21:22 10° ENE visible
19 Jan - 23:16:48 10° W 23:24:49 46° NNW 23:38:41 10° NE visible
20 Jan - 01:33:05 10° WNW 01:42:39 22° NNW 01:55:16 10° NNE visible
20 Jan - 03:54:11 10° NNW 04:04:58 17° N 04:16:19 10° NE visible
20 Jan - 06:12:15 10° NNW 06:27:37 27° NNE 06:40:08 10° ENE visible
20 Jan - 08:28:39 10° NW 08:46:16 57° NNE 08:56:58 10° ESE daylight
20 Jan - 10:47:08 10° WNW 11:00:40 51° SW 11:08:22 10° SE daylight
20 Jan - 19:54:08 10° S 19:57:58 20° SE 20:03:15 10° E visible
20 Jan - 22:03:09 10° WSW 22:09:43 72° NNW 22:21:54 10° NE visible
21 Jan - 00:16:54 10° WNW 00:25:24 27° NNW 00:38:04 10° NNE night (unlit)
21 Jan - 02:36:19 10° NW 02:45:38 17° N 02:56:31 10° NNE visible
21 Jan - 04:55:33 10° NNW 05:08:51 21° NNE 05:21:26 10° ENE visible
21 Jan - 07:11:45 10° NW 07:29:27 41° NNE 07:41:56 10° E daylight
21 Jan - 09:28:54 10° NW 09:45:55 85° SW 09:55:30 10° SE daylight
21 Jan - 11:50:27 10° W 11:58:48 22° SW 12:04:32 10° S daylight
21 Jan - 20:50:20 10° SW 20:55:40 61° SE 21:05:02 10° ENE visible
21 Jan - 23:02:00 10° W 23:09:16 37° NNW 23:21:22 10° NE visible
22 Jan - 01:18:55 10° NW 01:27:12 19° N 01:37:53 10° NNE visible
22 Jan - 03:38:50 10° NNW 03:49:30 17° N 04:00:56 10° NE visible
22 Jan - 05:55:16 10° NNW 06:11:41 31° NNE 06:25:18 10° E visible
22 Jan - 08:11:24 10° NW 08:30:06 67° NNE 08:41:43 10° ESE daylight
22 Jan - 10:30:34 10° WNW 10:44:35 45° SW 10:52:50 10° SSE daylight
22 Jan - 19:38:30 10° SSW 19:42:20 24° SE 19:47:45 10° E visible
22 Jan - 21:48:08 10° WSW 21:54:09 56° NNW 22:04:58 10° NE visible
23 Jan - 00:02:34 10° WNW 00:09:57 22° NNW 00:20:30 10° NNE night (unlit)
23 Jan - 02:21:56 10° NNW 02:30:16 16° N 02:39:58 10° NNE visible
23 Jan - 04:39:08 10° NNW 04:53:05 23° NNE 05:06:36 10° ENE visible
23 Jan - 06:54:33 10° NW 07:13:16 48° NNE 07:26:46 10° E daylight
23 Jan - 09:11:55 10° WNW 09:29:40 75° SW 09:40:03 10° SE daylight
23 Jan - 11:34:42 10° W 11:42:57 20° SW 11:48:49 10° S daylight
23 Jan - 20:35:06 10° SW 20:40:04 77° SE 20:48:42 10° ENE visible
23 Jan - 22:47:24 10° W 22:53:51 29° NNW 23:04:00 10° NNE visible
24 Jan - 01:05:01 10° NW 01:11:52 15° N 01:20:24 10° NNE night (unlit)
24 Jan - 03:23:16 10° NNW 03:33:59 18° NNE 03:45:40 10° NE visible
24 Jan - 05:38:20 10° NNW 05:55:33 35° NNE 06:10:14 10° E visible
24 Jan - 07:54:15 10° NW 08:13:46 76° NE 08:26:18 10° ESE daylight
24 Jan - 10:14:04 10° WNW 10:28:25 40° SW 10:37:14 10° SSE daylight
24 Jan - 19:22:56 10° SSW 19:26:45 29° SE 19:32:10 10° E daylight
24 Jan - 21:33:16 10° W 21:38:44 42° NNW 21:48:03 10° NE visible
24 Jan - 23:48:35 10° NW 23:54:39 17° NNW 00:02:47 10° NNE night (unlit)
25 Jan - 02:07:29 10° NNW 02:14:57 14° N 02:23:36 10° NE visible
25 Jan - 04:22:41 10° NNW 04:37:10 26° NNE 04:51:36 10° ENE visible
25 Jan - 06:37:28 10° NW 06:56:53 55° NNE 07:11:24 10° ESE visible
25 Jan - 08:55:01 10° WNW 09:13:18 66° SW 09:24:28 10° SE daylight
25 Jan - 11:19:02 10° WSW 11:27:06 18° SW 11:33:03 10° S daylight
25 Jan - 20:19:58 10° WSW 20:24:35 80° NW 20:32:20 10° NE visible
25 Jan - 22:33:05 10° WNW 22:38:34 22° NNW 22:46:33 10° NNE visible
